SES-5 (EGNOS/PRN 136)

Last updated on Oct. 25, 2020, 5:57 a.m. UTC

1 38652U 12036A   20298.76487435  .00000020  00000-0  00000+0 0  9992
2 38652   0.0449  68.3346 0002061 139.3383 106.2948  1.00272550 30399
UTC
Height (km)
Latitude
Longitude
Inclination
Orbital Period
UTC large
Height (km)
Speed (km/s)
/
Latitude / Longitude
Inclination (degrees)
Orbital Period (minutes)
Azimuth
Elevation
Range (km)
Doppler Factor
iOS Compass Heading
iOS Angle

Next 30 passes for location: Hong Kong

Rise time Rise Azimuth (degrees) Set time Set Azimuth (degrees) Duration Max altitude (degrees)

No matching passes for this satellites